Change the Weather History Date:

Tuesday, December 18, 2012

  Actual Average Record
Temperature  
Mean Temperature 40 °F -  
Max Temperature 42 °F 40 °F 53 °F (1997)
Min Temperature 39 °F 32 °F 21 °F (2010)
Degree Days  
Heating Degree Days 24    
Moisture  
Dew Point 39 °F    
Average Humidity 93    
Maximum Humidity 100    
Minimum Humidity 83    
Precipitation  
Precipitation 0.01 in - - ()
Sea Level Pressure  
Sea Level Pressure 29.92 in    
Wind  
Wind Speed 9 mph ()    
Max Wind Speed 13 mph    
Max Gust Speed -    
Visibility 5.0 miles    
Events Rain    
Averages and records for this station are not official NWS values.
T = Trace of Precipitation, MM = Missing Value Source: Averaged Metar Reports

Daily Weather History Graph

Daily Weather History Graph

Search for Another Location

Airport or City:

Trip Planner

Search our weather history database for the weather conditions in past years. The results will help you decide how hot, cold, wet, or windy it might be!

Date:

Astronomy

Dec. 18, 2012 Rise Set
Actual Time 8:35 AM CET 4:34 PM CET
Civil Twilight 7:56 AM CET 5:13 PM CET
Nautical Twilight 7:14 AM CET 5:55 PM CET
Astronomical Twilight 6:34 AM CET 6:35 PM CET
Moon 11:34 AM CET (12/18) 11:20 PM CET (12/18)
Length of Visible Light 9h 17m
Length of Day
7h 58m
Waxing Crescent, 32% of the Moon is Illuminated
Dec 18
Waxing Crescent
Dec 20
First Quarter
Dec 28
Full
Jan 5
Last Quarter
Jan 11
New

Hourly Weather History & Observations

Time (CET) Temp. Windchill Dew Point Humidity Pressure Visibility Wind Dir Wind Speed Gust Speed Precip Events Conditions
1:20 AM 39.2 °F 32.0 °F 37.4 °F 93% 29.77 in 6.2 mi SSW 11.5 mph - N/A   Scattered Clouds
1:50 AM 39.2 °F 31.6 °F 37.4 °F 93% 29.77 in 6.2 mi SSW 12.7 mph - N/A   Scattered Clouds
2:20 AM 39.2 °F 32.0 °F 37.4 °F 93% 29.77 in 6.2 mi SSW 11.5 mph - N/A   Scattered Clouds
2:50 AM 41.0 °F 34.7 °F 39.2 °F 93% 29.77 in 6.2 mi SSW 10.4 mph - N/A   Mostly Cloudy
3:20 AM 41.0 °F 34.3 °F 39.2 °F 93% 29.80 in 6.2 mi SSW 11.5 mph - N/A   Mostly Cloudy
3:50 AM 41.0 °F 35.8 °F 39.2 °F 93% 29.80 in 6.2 mi SSW 8.1 mph - N/A   Mostly Cloudy
4:00 AM 41 °F - 39 °F 89% 29.82 in 7 mi SSW 6.7 mph - -   Mostly Cloudy
4:20 AM 41.0 °F 34.3 °F 39.2 °F 93% 29.80 in 6.2 mi SSW 11.5 mph - N/A   Mostly Cloudy
4:50 AM 41.0 °F 34.3 °F 39.2 °F 93% 29.80 in 6.2 mi SSW 11.5 mph - N/A   Mostly Cloudy
5:20 AM 41.0 °F 34.3 °F 39.2 °F 93% 29.80 in 6.2 mi SSW 11.5 mph - N/A   Mostly Cloudy
5:50 AM 41.0 °F 34.3 °F 39.2 °F 93% 29.80 in 6.2 mi SSW 11.5 mph - N/A   Mostly Cloudy
6:20 AM 41.0 °F 34.3 °F 39.2 °F 93% 29.80 in 5.6 mi SSW 11.5 mph - N/A   Mostly Cloudy
6:50 AM 41.0 °F 35.8 °F 39.2 °F 93% 29.80 in 5.0 mi South 8.1 mph - N/A Rain Light Rain Showers
7:00 AM 41 °F - 39 °F 88% 29.84 in 5 mi South 8.9 mph - - Rain Light Rain Showers
7:20 AM 41.0 °F 34.7 °F 37.4 °F 87% 29.83 in 5.6 mi SSW 10.4 mph - N/A Rain Light Rain Showers
7:50 AM 41.0 °F 35.2 °F 39.2 °F 93% 29.83 in 5.6 mi SSW 9.2 mph - N/A Rain Light Rain Showers
8:20 AM 41.0 °F 34.7 °F 39.2 °F 93% 29.83 in 5.6 mi SSW 10.4 mph - N/A   Mostly Cloudy
8:50 AM 41.0 °F 34.7 °F 39.2 °F 93% 29.86 in 5.6 mi SW 10.4 mph - N/A   Mostly Cloudy
9:20 AM 41.0 °F 33.9 °F 37.4 °F 87% 29.86 in 5.6 mi SSW 12.7 mph - N/A   Mostly Cloudy
9:50 AM 41.0 °F 34.3 °F 39.2 °F 93% 29.86 in 5.6 mi SSW 11.5 mph - N/A   Mostly Cloudy
10:00 AM 41 °F - 39 °F 88% 29.90 in 6 mi SSW 11.2 mph - -   Partly Cloudy
10:20 AM 41.0 °F 34.7 °F 39.2 °F 93% 29.89 in 5.6 mi SSW 10.4 mph - N/A   Mostly Cloudy
10:50 AM 41.0 °F 35.2 °F 39.2 °F 93% 29.89 in 6.2 mi SW 9.2 mph - N/A   Mostly Cloudy
11:20 AM 41.0 °F 36.4 °F 39.2 °F 93% 29.89 in 6.2 mi SW 6.9 mph - N/A   Mostly Cloudy
11:50 AM 41.0 °F 35.2 °F 39.2 °F 93% 29.92 in 6.2 mi SW 9.2 mph - N/A   Mostly Cloudy
12:20 PM 41.0 °F 35.2 °F 39.2 °F 93% 29.92 in 6.2 mi SSW 9.2 mph - N/A   Mostly Cloudy
12:50 PM 41.0 °F 35.8 °F 39.2 °F 93% 29.92 in 6.2 mi SW 8.1 mph - N/A   Mostly Cloudy
1:00 PM 42 °F - 39 °F 83% 29.94 in 7 mi SW 8.9 mph - -   Partly Cloudy
1:20 PM 41.0 °F 35.8 °F 39.2 °F 93% 29.92 in 6.2 mi SW 8.1 mph - N/A   Mostly Cloudy
1:50 PM 42.8 °F 38.0 °F 39.2 °F 87% 29.92 in 6.2 mi SW 8.1 mph - N/A   Mostly Cloudy
2:20 PM 42.8 °F 37.5 °F 41.0 °F 93% 29.95 in - WSW 9.2 mph - N/A Rain Mostly Cloudy
2:50 PM 42.8 °F 38.0 °F 41.0 °F 93% 29.95 in 6.2 mi SW 8.1 mph - N/A   Mostly Cloudy
3:20 PM 41.0 °F 37.1 °F 39.2 °F 93% 29.95 in 6.2 mi WSW 5.8 mph - N/A   Mostly Cloudy
3:50 PM 41.0 °F 36.4 °F 41.0 °F 100% 29.95 in 6.2 mi WSW 6.9 mph - N/A   Mostly Cloudy
4:00 PM 41 °F - 40 °F 96% 29.99 in 7 mi WSW 6.7 mph - -   Partly Cloudy
4:20 PM 41.0 °F 36.4 °F 39.2 °F 93% 29.98 in 5.6 mi WSW 6.9 mph - N/A   Mostly Cloudy
4:50 PM 41.0 °F 35.8 °F 39.2 °F 93% 29.98 in 5.6 mi SW 8.1 mph - N/A   Mostly Cloudy
5:20 PM 41.0 °F 36.4 °F 39.2 °F 93% 30.01 in 5.6 mi SW 6.9 mph - N/A   Mostly Cloudy
5:50 PM 41.0 °F 35.8 °F 39.2 °F 93% 30.01 in 5.6 mi SW 8.1 mph - N/A   Mostly Cloudy
6:20 PM 41.0 °F 37.1 °F 41.0 °F 100% 30.04 in 3.1 mi WSW 5.8 mph - N/A   Mostly Cloudy
6:50 PM 41.0 °F 37.1 °F 39.2 °F 93% 30.04 in 3.1 mi West 5.8 mph - N/A   Mostly Cloudy
7:00 PM 41 °F - 40 °F 95% 30.06 in 3 mi West 4.5 mph - -   Mist
7:20 PM 41.0 °F 38.0 °F 39.2 °F 93% 30.04 in 2.5 mi West 4.6 mph - N/A   Mostly Cloudy
7:50 PM 41.0 °F - 41.0 °F 100% 30.04 in - West 2.3 mph - N/A   Mostly Cloudy
8:20 PM 41.0 °F 39.0 °F 41.0 °F 100% 30.04 in 1.9 mi SW 3.5 mph - N/A   Mostly Cloudy
8:50 PM 41.0 °F - 39.2 °F 93% 30.06 in 1.9 mi Variable 2.3 mph - N/A   Mostly Cloudy
9:20 PM 41.0 °F 36.4 °F 39.2 °F 93% 30.06 in 1.9 mi WSW 6.9 mph - N/A   Mostly Cloudy
9:50 PM 41.0 °F 38.0 °F 39.2 °F 93% 30.06 in 1.9 mi West 4.6 mph - N/A   Mostly Cloudy
10:00 PM 41 °F - 40 °F 94% 30.11 in 2 mi West 4.5 mph - -   Mist
10:20 PM 41.0 °F 38.0 °F 39.2 °F 93% 30.09 in 1.9 mi West 4.6 mph - N/A   Mostly Cloudy
10:50 PM 41.0 °F 36.4 °F 39.2 °F 93% 30.09 in 1.9 mi SW 6.9 mph - N/A   Mostly Cloudy
11:20 PM 41.0 °F 37.1 °F 39.2 °F 93% 30.09 in 1.9 mi SW 5.8 mph - N/A   Mostly Cloudy
11:50 PM 41.0 °F 36.4 °F 39.2 °F 93% 30.09 in 1.9 mi WSW 6.9 mph - N/A   Mostly Cloudy